Time,TemperatureF,DewpointF,PressureIn,WindDirection,WindDirectionDegrees,WindSpeedMPH,WindSpeedGustMPH,Humidity,HourlyPrecipIn,Conditions,Clouds,dailyrainin,SoftwareType,DateUTC
2013-04-04 00:00:00,32.8,17.6,30.17,SSW,210,0.0,0.0,53,0.00,,,0.00,WeatherCatV1.15B25,2013-04-04 04:00:00,
2013-04-04 00:01:00,32.9,17.2,30.17,SSW,210,1.0,2.0,52,0.00,,,0.00,WeatherCatV1.15B25,2013-04-04 04:01:00,
2013-04-04 00:03:00,32.9,17.2,30.17,SSW,210,1.0,4.0,52,0.00,,,0.00,WeatherCatV1.15B25,2013-04-04 04:03:00,
2013-04-04 00:06:00,32.9,17.7,30.18,SSW,210,0.0,3.0,53,0.00,,,0.00,WeatherCatV1.15B25,2013-04-04 04:06:00,
2013-04-04 00:11:00,32.6,16.9,30.16,SSW,210,2.0,5.0,52,0.00,,,0.00,WeatherCatV1.15B25,2013-04-04 04:11:00,
2013-04-04 00:14:00,32.7,17.0,30.17,WNW,292,1.0,4.0,52,0.00,,,0.00,WeatherCatV1.15B25,2013-04-04 04:14:00,
2013-04-04 00:16:00,32.9,17.2,30.17,WNW,292,0.0,0.0,52,0.00,,,0.00,WeatherCatV1.15B25,2013-04-04 04:16:00,
2013-04-04 00:21:00,32.9,17.2,30.17,WNW,295,3.0,8.0,52,0.00,,,0.00,WeatherCatV1.15B25,2013-04-04 04:21:00,
2013-04-04 00:26:00,32.9,17.7,30.17,NW,304,2.0,4.0,53,0.00,,,0.00,WeatherCatV1.15B25,2013-04-04 04:26:00,
2013-04-04 00:31:00,32.7,17.5,30.17,NW,304,0.0,3.0,53,0.00,,,0.00,WeatherCatV1.15B25,2013-04-04 04:31:00,
2013-04-04 00:36:00,32.5,17.3,30.18,NW,304,2.0,3.0,53,0.00,,,0.00,WeatherCatV1.15B25,2013-04-04 04:36:00,
2013-04-04 00:39:00,32.4,17.2,30.16,NW,304,0.0,0.0,53,0.00,,,0.00,WeatherCatV1.15B25,2013-04-04 04:39:00,
2013-04-04 00:41:00,32.4,17.2,30.18,NW,304,1.0,5.0,53,0.00,,,0.00,WeatherCatV1.15B25,2013-04-04 04:41:00,
2013-04-04 00:46:00,32.4,17.6,30.18,WNW,292,1.0,7.0,54,0.00,,,0.00,WeatherCatV1.15B25,2013-04-04 04:46:00,
2013-04-04 00:51:00,32.5,17.3,30.19,WNW,291,0.0,4.0,53,0.00,,,0.00,WeatherCatV1.15B25,2013-04-04 04:51:00,
2013-04-04 00:57:00,32.5,17.7,30.18,North,7,3.0,5.0,54,0.00,,,0.00,WeatherCatV1.15B25,2013-04-04 04:57:00,
2013-04-04 00:59:00,32.5,17.7,30.18,West,275,3.0,6.0,54,0.00,,,0.00,WeatherCatV1.15B25,2013-04-04 04:59:00,
2013-04-04 01:03:00,32.5,17.7,30.18,West,279,3.0,5.0,54,0.00,,,0.00,WeatherCatV1.15B25,2013-04-04 05:03:00,
2013-04-04 01:06:00,32.5,17.3,30.18,West,279,2.0,5.0,53,0.00,,,0.00,WeatherCatV1.15B25,2013-04-04 05:06:00,
2013-04-04 01:11:00,32.5,17.7,30.19,WNW,289,3.0,5.0,54,0.00,,,0.00,WeatherCatV1.15B25,2013-04-04 05:11:00,
2013-04-04 01:16:00,32.4,17.6,30.19,WNW,288,3.0,3.0,54,0.00,,,0.00,WeatherCatV1.15B25,2013-04-04 05:16:00,
2013-04-04 01:21:00,32.4,17.6,30.18,NW,319,4.0,4.0,54,0.00,,,0.00,WeatherCatV1.15B25,2013-04-04 05:21:00,
2013-04-04 01:26:00,32.4,17.6,30.18,NW,314,0.0,4.0,54,0.00,,,0.00,WeatherCatV1.15B25,2013-04-04 05:26:00,
2013-04-04 01:31:00,32.2,17.9,30.20,WNW,301,1.0,3.0,55,0.00,,,0.00,WeatherCatV1.15B25,2013-04-04 05:31:00,
2013-04-04 01:36:00,32.1,17.4,30.19,NW,304,1.0,4.0,54,0.00,,,0.00,WeatherCatV1.15B25,2013-04-04 05:36:00,
2013-04-04 01:39:00,32.1,17.8,30.19,NW,304,1.0,4.0,55,0.00,,,0.00,WeatherCatV1.15B25,2013-04-04 05:39:00,
2013-04-04 01:40:00,32.1,18.2,30.19,NW,304,5.0,5.0,56,0.00,,,0.00,WeatherCatV1.15B25,2013-04-04 05:40:00,
2013-04-04 01:45:00,32.1,17.8,30.19,NW,304,3.0,4.0,55,0.00,,,0.00,WeatherCatV1.15B25,2013-04-04 05:45:00,
2013-04-04 01:46:00,32.1,17.4,30.19,NW,304,3.0,4.0,54,0.00,,,0.00,WeatherCatV1.15B25,2013-04-04 05:46:00,
2013-04-04 01:51:00,31.9,18.0,30.19,NW,304,2.0,4.0,56,0.00,,,0.00,WeatherCatV1.15B25,2013-04-04 05:51:00,
2013-04-04 01:56:00,31.9,17.6,30.20,WNW,301,2.0,3.0,55,0.00,,,0.00,WeatherCatV1.15B25,2013-04-04 05:56:00,
2013-04-04 01:59:00,31.9,17.6,30.20,SSW,209,3.0,6.0,55,0.00,,,0.00,WeatherCatV1.15B25,2013-04-04 05:59:00,
2013-04-04 02:01:00,31.9,17.6,30.20,West,261,1.0,7.0,55,0.00,,,0.00,WeatherCatV1.15B25,2013-04-04 06:01:00,
2013-04-04 02:04:00,31.9,17.6,30.19,West,261,1.0,2.0,55,0.00,,,0.00,WeatherCatV1.15B25,2013-04-04 06:04:00,
2013-04-04 02:06:00,31.9,17.6,30.20,West,261,0.0,0.0,55,0.00,,,0.00,WeatherCatV1.15B25,2013-04-04 06:06:00,
2013-04-04 02:09:00,31.8,17.5,30.20,West,261,3.0,3.0,55,0.00,,,0.00,WeatherCatV1.15B25,2013-04-04 06:09:00,
2013-04-04 02:11:00,31.7,17.8,30.19,WSW,258,1.0,3.0,56,0.00,,,0.00,WeatherCatV1.15B25,2013-04-04 06:11:00,
2013-04-04 02:16:00,31.5,17.6,30.20,WSW,258,0.0,1.0,56,0.00,,,0.00,WeatherCatV1.15B25,2013-04-04 06:16:00,
2013-04-04 02:19:00,31.3,17.4,30.20,WSW,258,0.0,0.0,56,0.00,,,0.00,WeatherCatV1.15B25,2013-04-04 06:19:00,
2013-04-04 02:21:00,31.2,17.4,30.20,WSW,258,0.0,1.0,56,0.00,,,0.00,WeatherCatV1.15B25,2013-04-04 06:21:00,
2013-04-04 02:24:00,31.1,17.3,30.20,WSW,258,0.0,0.0,56,0.00,,,0.00,WeatherCatV1.15B25,2013-04-04 06:24:00,
2013-04-04 02:26:00,30.9,17.1,30.21,WSW,258,0.0,0.0,56,0.00,,,0.00,WeatherCatV1.15B25,2013-04-04 06:26:00,
2013-04-04 02:29:00,30.8,17.4,30.21,WSW,258,0.0,0.0,57,0.00,,,0.00,WeatherCatV1.15B25,2013-04-04 06:29:00,
2013-04-04 02:30:00,30.8,17.4,30.20,WSW,258,0.0,0.0,57,0.00,,,0.00,WeatherCatV1.15B25,2013-04-04 06:30:00,
2013-04-04 02:31:00,30.8,17.4,30.20,WSW,258,1.0,2.0,57,0.00,,,0.00,WeatherCatV1.15B25,2013-04-04 06:31:00,
2013-04-04 02:34:00,30.6,17.2,30.21,WNW,287,0.0,4.0,57,0.00,,,0.00,WeatherCatV1.15B25,2013-04-04 06:34:00,
2013-04-04 02:36:00,30.8,17.8,30.21,NNW,342,0.0,3.0,58,0.00,,,0.00,WeatherCatV1.15B25,2013-04-04 06:36:00,
2013-04-04 02:40:00,30.8,17.8,30.21,NNW,343,1.0,4.0,58,0.00,,,0.00,WeatherCatV1.15B25,2013-04-04 06:40:00,
2013-04-04 02:41:00,30.9,17.9,30.20,NNW,343,0.0,4.0,58,0.00,,,0.00,WeatherCatV1.15B25,2013-04-04 06:41:00,
2013-04-04 02:44:00,30.9,17.9,30.20,NNW,343,1.0,2.0,58,0.00,,,0.00,WeatherCatV1.15B25,2013-04-04 06:44:00,
2013-04-04 02:49:00,30.6,18.0,30.21,NNW,343,0.0,1.0,59,0.00,,,0.00,WeatherCatV1.15B25,2013-04-04 06:49:00,
2013-04-04 02:51:00,30.5,17.9,30.19,NNW,343,1.0,1.0,59,0.00,,,0.00,WeatherCatV1.15B25,2013-04-04 06:51:00,
2013-04-04 02:56:00,30.2,18.0,30.19,NNW,343,0.0,0.0,60,0.00,,,0.00,WeatherCatV1.15B25,2013-04-04 06:56:00,
2013-04-04 03:01:00,29.9,17.3,30.20,NNW,343,0.0,0.0,59,0.00,,,0.00,WeatherCatV1.15B25,2013-04-04 07:01:00,
2013-04-04 03:06:00,29.9,17.7,30.20,NNW,343,0.0,0.0,60,0.00,,,0.00,WeatherCatV1.15B25,2013-04-04 07:06:00,
2013-04-04 03:11:00,29.7,17.5,30.19,NNW,343,1.0,1.0,60,0.00,,,0.00,WeatherCatV1.15B25,2013-04-04 07:11:00,
2013-04-04 03:14:00,29.8,17.2,30.19,NNW,343,1.0,3.0,59,0.00,,,0.00,WeatherCatV1.15B25,2013-04-04 07:14:00,
2013-04-04 03:19:00,29.9,17.3,30.19,NNW,342,1.0,5.0,59,0.00,,,0.00,WeatherCatV1.15B25,2013-04-04 07:19:00,
2013-04-04 03:21:00,30.0,17.4,30.19,WNW,298,1.0,4.0,59,0.00,,,0.00,WeatherCatV1.15B25,2013-04-04 07:21:00,
2013-04-04 03:24:00,30.0,17.8,30.19,WNW,298,0.0,2.0,60,0.00,,,0.00,WeatherCatV1.15B25,2013-04-04 07:24:00,
2013-04-04 03:29:00,30.1,17.9,30.19,WNW,297,0.0,4.0,60,0.00,,,0.00,WeatherCatV1.15B25,2013-04-04 07:29:00,
2013-04-04 03:31:00,30.2,17.6,30.19,NW,312,5.0,5.0,59,0.00,,,0.00,WeatherCatV1.15B25,2013-04-04 07:31:00,
2013-04-04 03:36:00,30.6,17.6,30.19,West,278,3.0,5.0,58,0.00,,,0.00,WeatherCatV1.15B25,2013-04-04 07:36:00,
2013-04-04 03:39:00,30.6,17.6,30.19,West,280,2.0,2.0,58,0.00,,,0.00,WeatherCatV1.15B25,2013-04-04 07:39:00,
2013-04-04 03:41:00,30.7,17.7,30.19,West,280,2.0,3.0,58,0.00,,,0.00,WeatherCatV1.15B25,2013-04-04 07:41:00,
2013-04-04 03:44:00,30.6,17.6,30.19,West,280,3.0,3.0,58,0.00,,,0.00,WeatherCatV1.15B25,2013-04-04 07:44:00,
2013-04-04 03:49:00,30.5,17.5,30.20,West,280,2.0,3.0,58,0.00,,,0.00,WeatherCatV1.15B25,2013-04-04 07:49:00,
2013-04-04 03:51:00,30.3,18.1,30.20,West,279,0.0,2.0,60,0.00,,,0.00,WeatherCatV1.15B25,2013-04-04 07:51:00,
2013-04-04 03:56:00,30.0,17.8,30.20,West,280,0.0,2.0,60,0.00,,,0.00,WeatherCatV1.15B25,2013-04-04 07:56:00,
2013-04-04 04:01:00,29.8,18.4,30.22,West,279,0.0,0.0,62,0.00,,,0.00,WeatherCatV1.15B25,2013-04-04 08:01:00,
2013-04-04 04:06:00,29.3,17.9,30.20,West,280,0.0,0.0,62,0.00,,,0.00,WeatherCatV1.15B25,2013-04-04 08:06:00,
2013-04-04 04:11:00,29.0,18.0,30.21,West,279,0.0,0.0,63,0.00,,,0.00,WeatherCatV1.15B25,2013-04-04 08:11:00,
2013-04-04 04:16:00,28.7,17.7,30.20,West,280,0.0,1.0,63,0.00,,,0.00,WeatherCatV1.15B25,2013-04-04 08:16:00,
2013-04-04 04:21:00,28.4,18.2,30.21,West,279,0.0,0.0,65,0.00,,,0.00,WeatherCatV1.15B25,2013-04-04 08:21:00,
2013-04-04 04:24:00,28.3,17.7,30.21,West,279,0.0,0.0,64,0.00,,,0.00,WeatherCatV1.15B25,2013-04-04 08:24:00,
2013-04-04 04:29:00,28.1,17.5,30.20,West,279,0.0,0.0,64,0.00,,,0.00,WeatherCatV1.15B25,2013-04-04 08:29:00,
2013-04-04 04:34:00,28.0,17.4,30.21,West,280,0.0,0.0,64,0.00,,,0.00,WeatherCatV1.15B25,2013-04-04 08:34:00,
2013-04-04 04:39:00,27.8,17.2,30.21,West,279,0.0,0.0,64,0.00,,,0.00,WeatherCatV1.15B25,2013-04-04 08:39:00,
2013-04-04 04:41:00,27.7,17.5,30.21,West,279,0.0,0.0,65,0.00,,,0.00,WeatherCatV1.15B25,2013-04-04 08:41:00,
2013-04-04 04:46:00,27.4,17.2,30.20,West,280,0.0,0.0,65,0.00,,,0.00,WeatherCatV1.15B25,2013-04-04 08:46:00,
2013-04-04 04:51:00,27.2,17.4,30.21,West,279,0.0,0.0,66,0.00,,,0.00,WeatherCatV1.15B25,2013-04-04 08:51:00,
2013-04-04 04:56:00,27.1,17.6,30.21,West,280,0.0,0.0,67,0.00,,,0.00,WeatherCatV1.15B25,2013-04-04 08:56:00,
2013-04-04 05:01:00,27.2,17.7,30.21,West,280,2.0,2.0,67,0.00,,,0.00,WeatherCatV1.15B25,2013-04-04 09:01:00,
2013-04-04 05:06:00,27.2,17.7,30.22,West,280,0.0,0.0,67,0.00,,,0.00,WeatherCatV1.15B25,2013-04-04 09:06:00,
2013-04-04 05:09:00,27.2,17.7,30.22,West,279,0.0,0.0,67,0.00,,,0.00,WeatherCatV1.15B25,2013-04-04 09:09:00,
2013-04-04 05:14:00,27.0,17.9,30.22,West,280,0.0,0.0,68,0.00,,,0.00,WeatherCatV1.15B25,2013-04-04 09:14:00,
2013-04-04 05:19:00,27.0,17.9,30.22,West,279,0.0,0.0,68,0.00,,,0.00,WeatherCatV1.15B25,2013-04-04 09:19:00,
2013-04-04 05:24:00,27.0,18.2,30.22,West,279,0.0,0.0,69,0.00,,,0.00,WeatherCatV1.15B25,2013-04-04 09:24:00,
2013-04-04 05:29:00,26.8,18.0,30.23,West,280,0.0,0.0,69,0.00,,,0.00,WeatherCatV1.15B25,2013-04-04 09:29:00,
2013-04-04 05:31:00,26.8,18.0,30.23,West,280,0.0,0.0,69,0.00,,,0.00,WeatherCatV1.15B25,2013-04-04 09:31:00,
2013-04-04 05:36:00,26.5,17.7,30.24,West,279,0.0,0.0,69,0.00,,,0.00,WeatherCatV1.15B25,2013-04-04 09:36:00,
2013-04-04 05:39:00,26.4,18.0,30.24,West,279,0.0,0.0,70,0.00,,,0.00,WeatherCatV1.15B25,2013-04-04 09:39:00,
2013-04-04 05:44:00,26.0,17.2,30.24,West,280,0.0,0.0,69,0.00,,,0.00,WeatherCatV1.15B25,2013-04-04 09:44:00,
2013-04-04 05:46:00,26.2,17.8,30.24,West,280,0.0,0.0,70,0.00,,,0.00,WeatherCatV1.15B25,2013-04-04 09:46:00,
2013-04-04 05:51:00,26.2,18.1,30.25,West,279,0.0,0.0,71,0.00,,,0.00,WeatherCatV1.15B25,2013-04-04 09:51:00,
2013-04-04 05:56:00,26.3,17.9,30.25,West,279,0.0,0.0,70,0.00,,,0.00,WeatherCatV1.15B25,2013-04-04 09:56:00,
2013-04-04 05:59:00,26.5,18.1,30.25,West,279,0.0,0.0,70,0.00,,,0.00,WeatherCatV1.15B25,2013-04-04 09:59:00,
2013-04-04 06:04:00,26.7,18.3,30.25,West,279,0.0,0.0,70,0.00,,,0.00,WeatherCatV1.15B25,2013-04-04 10:04:00,
2013-04-04 06:09:00,26.8,18.0,30.25,West,280,0.0,0.0,69,0.00,,,0.00,WeatherCatV1.15B25,2013-04-04 10:09:00,
2013-04-04 06:11:00,26.8,18.4,30.26,West,279,0.0,0.0,70,0.00,,,0.00,WeatherCatV1.15B25,2013-04-04 10:11:00,
2013-04-04 06:12:00,26.8,18.4,30.25,West,279,0.0,0.0,70,0.00,,,0.00,WeatherCatV1.15B25,2013-04-04 10:12:00,
2013-04-04 06:14:00,26.8,18.4,30.25,West,280,0.0,0.0,70,0.00,,,0.00,WeatherCatV1.15B25,2013-04-04 10:14:00,
2013-04-04 06:19:00,26.8,18.0,30.26,West,279,0.0,0.0,69,0.00,,,0.00,WeatherCatV1.15B25,2013-04-04 10:19:00,
2013-04-04 06:24:00,26.8,18.0,30.26,West,279,0.0,2.0,69,0.00,,,0.00,WeatherCatV1.15B25,2013-04-04 10:24:00,
2013-04-04 06:26:00,26.9,17.8,30.26,West,279,0.0,0.0,68,0.00,,,0.00,WeatherCatV1.15B25,2013-04-04 10:26:00,
2013-04-04 06:31:00,26.8,18.4,30.27,West,280,0.0,1.0,70,0.00,,,0.00,WeatherCatV1.15B25,2013-04-04 10:31:00,
2013-04-04 06:36:00,26.8,18.0,30.27,West,280,0.0,0.0,69,0.00,,,0.00,WeatherCatV1.15B25,2013-04-04 10:36:00,
2013-04-04 06:39:00,26.8,18.0,30.27,West,280,0.0,0.0,69,0.00,,,0.00,WeatherCatV1.15B25,2013-04-04 10:39:00,
2013-04-04 06:42:00,26.9,18.1,30.27,West,279,0.0,2.0,69,0.00,,,0.00,WeatherCatV1.15B25,2013-04-04 10:42:00,
2013-04-04 06:44:00,26.9,18.1,30.27,West,280,0.0,0.0,69,0.00,,,0.00,WeatherCatV1.15B25,2013-04-04 10:44:00,
2013-04-04 06:49:00,27.2,18.1,30.27,West,280,0.0,0.0,68,0.00,,,0.00,WeatherCatV1.15B25,2013-04-04 10:49:00,
2013-04-04 06:54:00,27.4,18.3,30.27,West,280,0.0,0.0,68,0.00,,,0.00,WeatherCatV1.15B25,2013-04-04 10:54:00,
2013-04-04 06:59:00,27.5,19.0,30.28,West,280,0.0,0.0,70,0.00,,,0.00,WeatherCatV1.15B25,2013-04-04 10:59:00,
2013-04-04 07:04:00,28.1,19.9,30.28,West,280,0.0,0.0,71,0.00,,,0.00,WeatherCatV1.15B25,2013-04-04 11:04:00,
2013-04-04 07:09:00,28.8,19.9,30.28,West,280,0.0,0.0,69,0.00,,,0.00,WeatherCatV1.15B25,2013-04-04 11:09:00,
2013-04-04 07:14:00,29.0,20.5,30.27,West,280,0.0,0.0,70,0.00,,,0.00,WeatherCatV1.15B25,2013-04-04 11:14:00,
2013-04-04 07:16:00,29.1,20.2,30.28,West,280,0.0,0.0,69,0.00,,,0.00,WeatherCatV1.15B25,2013-04-04 11:16:00,
2013-04-04 07:17:00,29.3,20.4,30.28,West,280,0.0,0.0,69,0.00,,,0.00,WeatherCatV1.15B25,2013-04-04 11:17:00,
2013-04-04 07:22:00,29.6,21.0,30.29,West,280,0.0,0.0,70,0.00,,,0.00,WeatherCatV1.15B25,2013-04-04 11:22:00,
2013-04-04 07:24:00,29.7,21.1,30.29,West,280,0.0,0.0,70,0.00,,,0.00,WeatherCatV1.15B25,2013-04-04 11:24:00,
2013-04-04 07:29:00,30.2,21.9,30.28,West,280,0.0,0.0,71,0.00,,,0.00,WeatherCatV1.15B25,2013-04-04 11:29:00,
2013-04-04 07:31:00,30.6,21.7,30.28,West,280,0.0,0.0,69,0.00,,,0.00,WeatherCatV1.15B25,2013-04-04 11:31:00,
2013-04-04 07:36:00,31.3,21.3,30.29,West,280,0.0,0.0,66,0.00,,,0.00,WeatherCatV1.15B25,2013-04-04 11:36:00,
2013-04-04 07:42:00,31.9,20.4,30.30,West,280,1.0,4.0,62,0.00,,,0.00,WeatherCatV1.15B25,2013-04-04 11:42:00,
2013-04-04 07:47:00,32.2,20.3,30.30,West,280,1.0,2.0,61,0.00,,,0.00,WeatherCatV1.15B25,2013-04-04 11:47:00,
2013-04-04 07:51:00,32.5,19.8,30.30,West,280,3.0,4.0,59,0.00,,,0.00,WeatherCatV1.15B25,2013-04-04 11:51:00,
2013-04-04 07:56:00,32.9,19.8,30.30,West,280,0.0,3.0,58,0.00,,,0.00,WeatherCatV1.15B25,2013-04-04 11:56:00,
2013-04-04 08:01:00,33.3,19.7,30.30,West,281,1.0,5.0,57,0.00,,,0.00,WeatherCatV1.15B25,2013-04-04 12:01:00,
2013-04-04 08:04:00,33.5,19.9,30.31,West,281,3.0,4.0,57,0.00,,,0.00,WeatherCatV1.15B25,2013-04-04 12:04:00,
2013-04-04 08:09:00,33.8,20.2,30.31,WNW,282,0.0,2.0,57,0.00,,,0.00,WeatherCatV1.15B25,2013-04-04 12:09:00,
2013-04-04 08:14:00,34.3,20.3,30.30,WNW,282,2.0,3.0,56,0.00,,,0.00,WeatherCatV1.15B25,2013-04-04 12:14:00,
2013-04-04 08:16:00,34.6,20.1,30.30,WNW,282,0.0,5.0,55,0.00,,,0.00,WeatherCatV1.15B25,2013-04-04 12:16:00,
2013-04-04 08:19:00,34.9,20.0,30.31,WSW,242,2.0,5.0,54,0.00,,,0.00,WeatherCatV1.15B25,2013-04-04 12:19:00,
2013-04-04 08:21:00,34.9,20.0,30.31,NNW,331,3.0,5.0,54,0.00,,,0.00,WeatherCatV1.15B25,2013-04-04 12:21:00,
2013-04-04 08:24:00,35.0,19.6,30.31,WSW,239,0.0,5.0,53,0.00,,,0.00,WeatherCatV1.15B25,2013-04-04 12:24:00,
2013-04-04 08:29:00,35.5,19.6,30.30,SE,127,2.0,5.0,52,0.00,,,0.00,WeatherCatV1.15B25,2013-04-04 12:29:00,
2013-04-04 08:31:00,35.6,19.7,30.30,WNW,284,6.0,6.0,52,0.00,,,0.00,WeatherCatV1.15B25,2013-04-04 12:31:00,
2013-04-04 08:36:00,35.9,18.6,30.30,West,264,3.0,8.0,49,0.00,,,0.00,WeatherCatV1.15B25,2013-04-04 12:36:00,
2013-04-04 08:39:00,35.9,18.6,30.30,WNW,294,4.0,7.0,49,0.00,,,0.00,WeatherCatV1.15B25,2013-04-04 12:39:00,
2013-04-04 08:44:00,36.2,18.9,30.30,West,274,0.0,4.0,49,0.00,,,0.00,WeatherCatV1.15B25,2013-04-04 12:44:00,
2013-04-04 08:49:00,36.7,19.4,30.31,NNW,335,6.0,6.0,49,0.00,,,0.00,WeatherCatV1.15B25,2013-04-04 12:49:00,
2013-04-04 08:54:00,37.0,18.2,30.30,West,260,1.0,3.0,46,0.00,,,0.00,WeatherCatV1.15B25,2013-04-04 12:54:00,
2013-04-04 08:59:00,37.3,17.9,30.30,West,279,1.0,2.0,45,0.00,,,0.00,WeatherCatV1.15B25,2013-04-04 12:59:00,
2013-04-04 09:01:00,37.5,18.1,30.30,ENE,68,4.0,7.0,45,0.00,,,0.00,WeatherCatV1.15B25,2013-04-04 13:01:00,
2013-04-04 09:04:00,37.5,17.6,30.30,NNW,347,5.0,6.0,44,0.00,,,0.00,WeatherCatV1.15B25,2013-04-04 13:04:00,
2013-04-04 09:06:00,37.5,17.1,30.29,WSW,249,1.0,8.0,43,0.00,,,0.00,WeatherCatV1.15B25,2013-04-04 13:06:00,
2013-04-04 09:09:00,37.5,17.6,30.29,NW,317,2.0,6.0,44,0.00,,,0.00,WeatherCatV1.15B25,2013-04-04 13:09:00,
2013-04-04 09:11:00,37.6,17.2,30.29,North,3,5.0,9.0,43,0.00,,,0.00,WeatherCatV1.15B25,2013-04-04 13:11:00,
2013-04-04 09:14:00,37.8,17.3,30.29,NW,326,2.0,5.0,43,0.00,,,0.00,WeatherCatV1.15B25,2013-04-04 13:14:00,
2013-04-04 09:16:00,37.7,17.2,30.30,WNW,288,5.0,6.0,43,0.00,,,0.00,WeatherCatV1.15B25,2013-04-04 13:16:00,
2013-04-04 09:21:00,38.2,17.7,30.30,West,275,1.0,2.0,43,0.00,,,0.00,WeatherCatV1.15B25,2013-04-04 13:21:00,
2013-04-04 09:24:00,38.8,17.1,30.29,West,278,4.0,7.0,41,0.00,,,0.00,WeatherCatV1.15B25,2013-04-04 13:24:00,
2013-04-04 09:29:00,38.8,16.6,30.30,NW,304,4.0,9.0,40,0.00,,,0.00,WeatherCatV1.15B25,2013-04-04 13:29:00,
2013-04-04 09:31:00,38.6,16.4,30.29,WSW,253,3.0,5.0,40,0.00,,,0.00,WeatherCatV1.15B25,2013-04-04 13:31:00,
2013-04-04 09:36:00,38.9,16.7,30.29,NNW,339,2.0,6.0,40,0.00,,,0.00,WeatherCatV1.15B25,2013-04-04 13:36:00,
2013-04-04 09:39:00,39.2,16.9,30.30,NNW,330,0.0,3.0,40,0.00,,,0.00,WeatherCatV1.15B25,2013-04-04 13:39:00,
2013-04-04 09:42:00,39.2,16.3,30.28,NNW,344,3.0,9.0,39,0.00,,,0.00,WeatherCatV1.15B25,2013-04-04 13:42:00,
2013-04-04 09:46:00,39.5,15.4,30.29,North,0,10.0,15.0,37,0.00,,,0.00,WeatherCatV1.15B25,2013-04-04 13:46:00,
2013-04-04 09:51:00,39.3,16.4,30.28,NW,319,5.0,7.0,39,0.00,,,0.00,WeatherCatV1.15B25,2013-04-04 13:51:00,
2013-04-04 09:56:00,39.7,16.2,30.28,WSW,247,6.0,7.0,38,0.00,,,0.00,WeatherCatV1.15B25,2013-04-04 13:56:00,
2013-04-04 10:01:00,40.1,17.2,30.28,North,351,6.0,7.0,39,0.00,,,0.00,WeatherCatV1.15B25,2013-04-04 14:01:00,
2013-04-04 10:06:00,40.3,16.1,30.28,SW,224,6.0,10.0,37,0.00,,,0.00,WeatherCatV1.15B25,2013-04-04 14:06:00,
2013-04-04 10:11:00,40.5,16.3,30.28,WNW,289,3.0,4.0,37,0.00,,,0.00,WeatherCatV1.15B25,2013-04-04 14:11:00,
2013-04-04 10:16:00,40.3,16.1,30.28,West,264,2.0,6.0,37,0.00,,,0.00,WeatherCatV1.15B25,2013-04-04 14:16:00,
2013-04-04 10:19:00,40.5,17.5,30.27,West,274,8.0,8.0,39,0.00,,,0.00,WeatherCatV1.15B25,2013-04-04 14:19:00,
2013-04-04 10:24:00,40.6,16.4,30.28,NW,305,4.0,6.0,37,0.00,,,0.00,WeatherCatV1.15B25,2013-04-04 14:24:00,
2013-04-04 10:26:00,40.9,16.0,30.27,NW,311,5.0,9.0,36,0.00,,,0.00,WeatherCatV1.15B25,2013-04-04 14:26:00,
2013-04-04 10:31:00,41.2,16.3,30.27,North,11,3.0,5.0,36,0.00,,,0.00,WeatherCatV1.15B25,2013-04-04 14:31:00,
2013-04-04 10:34:00,41.5,16.6,30.26,NNE,32,5.0,7.0,36,0.00,,,0.00,WeatherCatV1.15B25,2013-04-04 14:34:00,
2013-04-04 10:39:00,41.5,15.2,30.27,North,350,5.0,7.0,34,0.00,,,0.00,WeatherCatV1.15B25,2013-04-04 14:39:00,
2013-04-04 10:41:00,41.4,16.5,30.26,North,353,5.0,6.0,36,0.00,,,0.00,WeatherCatV1.15B25,2013-04-04 14:41:00,
2013-04-04 10:46:00,41.9,15.6,30.27,NNW,331,4.0,6.0,34,0.00,,,0.00,WeatherCatV1.15B25,2013-04-04 14:46:00,
2013-04-04 10:51:00,42.0,15.0,30.27,North,4,1.0,6.0,33,0.00,,,0.00,WeatherCatV1.15B25,2013-04-04 14:51:00,
2013-04-04 10:54:00,42.0,15.7,30.26,NW,311,1.0,7.0,34,0.00,,,0.00,WeatherCatV1.15B25,2013-04-04 14:54:00,
2013-04-04 10:56:00,42.2,15.9,30.26,NW,323,3.0,6.0,34,0.00,,,0.00,WeatherCatV1.15B25,2013-04-04 14:56:00,
2013-04-04 11:01:00,42.6,16.9,30.25,WSW,254,5.0,10.0,35,0.00,,,0.00,WeatherCatV1.15B25,2013-04-04 15:01:00,
2013-04-04 11:04:00,42.9,17.2,30.26,NNW,342,5.0,9.0,35,0.00,,,0.00,WeatherCatV1.15B25,2013-04-04 15:04:00,
2013-04-04 11:06:00,42.9,15.8,30.25,North,5,5.0,12.0,33,0.00,,,0.00,WeatherCatV1.15B25,2013-04-04 15:06:00,
2013-04-04 11:11:00,42.7,15.6,30.25,NW,307,3.0,4.0,33,0.00,,,0.00,WeatherCatV1.15B25,2013-04-04 15:11:00,
2013-04-04 11:16:00,43.3,16.8,30.25,West,273,1.0,10.0,34,0.00,,,0.00,WeatherCatV1.15B25,2013-04-04 15:16:00,
2013-04-04 11:21:00,43.5,17.0,30.25,NE,40,1.0,5.0,34,0.00,,,0.00,WeatherCatV1.15B25,2013-04-04 15:21:00,
2013-04-04 11:24:00,43.8,17.3,30.24,SSW,196,3.0,10.0,34,0.00,,,0.00,WeatherCatV1.15B25,2013-04-04 15:24:00,
2013-04-04 11:26:00,44.2,16.9,30.24,NNW,331,2.0,5.0,33,0.00,,,0.00,WeatherCatV1.15B25,2013-04-04 15:26:00,
2013-04-04 11:31:00,44.8,18.2,30.24,SW,216,5.0,9.0,34,0.00,,,0.00,WeatherCatV1.15B25,2013-04-04 15:31:00,
2013-04-04 11:36:00,45.4,17.3,30.25,West,265,3.0,8.0,32,0.00,,,0.00,WeatherCatV1.15B25,2013-04-04 15:36:00,
2013-04-04 11:41:00,44.6,17.3,30.23,NW,312,3.0,5.0,33,0.00,,,0.00,WeatherCatV1.15B25,2013-04-04 15:41:00,
2013-04-04 11:44:00,44.7,16.7,30.22,NW,324,1.0,4.0,32,0.00,,,0.00,WeatherCatV1.15B25,2013-04-04 15:44:00,
2013-04-04 11:46:00,44.7,15.9,30.23,NW,324,4.0,4.0,31,0.00,,,0.00,WeatherCatV1.15B25,2013-04-04 15:46:00,
2013-04-04 11:51:00,46.0,17.8,30.23,SSW,206,2.0,10.0,32,0.00,,,0.00,WeatherCatV1.15B25,2013-04-04 15:51:00,
2013-04-04 11:56:00,46.5,15.2,30.24,NW,306,3.0,8.0,28,0.00,,,0.00,WeatherCatV1.15B25,2013-04-04 15:56:00,
2013-04-04 11:57:00,46.4,15.9,30.23,WNW,290,8.0,11.0,29,0.00,,,0.00,WeatherCatV1.15B25,2013-04-04 15:57:00,
2013-04-04 12:01:00,46.0,16.3,30.23,West,278,2.0,8.0,30,0.00,,,0.00,WeatherCatV1.15B25,2013-04-04 16:01:00,
2013-04-04 12:04:00,46.3,16.6,30.22,NW,321,3.0,6.0,30,0.00,,,0.00,WeatherCatV1.15B25,2013-04-04 16:04:00,
2013-04-04 12:06:00,46.1,16.4,30.22,NW,322,4.0,4.0,30,0.00,,,0.00,WeatherCatV1.15B25,2013-04-04 16:06:00,
2013-04-04 12:09:00,46.3,16.6,30.23,NW,322,3.0,5.0,30,0.00,,,0.00,WeatherCatV1.15B25,2013-04-04 16:09:00,
2013-04-04 12:14:00,46.7,15.3,30.22,West,279,3.0,7.0,28,0.00,,,0.00,WeatherCatV1.15B25,2013-04-04 16:14:00,
2013-04-04 12:19:00,47.8,18.7,30.22,WSW,250,4.0,7.0,31,0.00,,,0.00,WeatherCatV1.15B25,2013-04-04 16:19:00,
2013-04-04 12:24:00,48.8,16.3,30.21,WSW,241,2.0,3.0,27,0.00,,,0.00,WeatherCatV1.15B25,2013-04-04 16:24:00,
2013-04-04 12:26:00,48.2,15.8,30.21,WNW,290,1.0,6.0,27,0.00,,,0.00,WeatherCatV1.15B25,2013-04-04 16:26:00,
2013-04-04 12:27:00,48.1,16.6,30.22,WNW,290,0.0,3.0,28,0.00,,,0.00,WeatherCatV1.15B25,2013-04-04 16:27:00,
2013-04-04 12:31:00,47.6,15.3,30.21,WNW,289,1.0,5.0,27,0.00,,,0.00,WeatherCatV1.15B25,2013-04-04 16:31:00,
2013-04-04 12:36:00,47.6,16.1,30.21,WSW,258,0.0,2.0,28,0.00,,,0.00,WeatherCatV1.15B25,2013-04-04 16:36:00,
2013-04-04 12:37:00,47.7,17.0,30.20,West,261,4.0,4.0,29,0.00,,,0.00,WeatherCatV1.15B25,2013-04-04 16:37:00,
2013-04-04 12:39:00,47.9,17.2,30.21,WNW,295,4.0,8.0,29,0.00,,,0.00,WeatherCatV1.15B25,2013-04-04 16:39:00,
2013-04-04 12:41:00,47.7,16.2,30.21,WNW,292,7.0,8.0,28,0.00,,,0.00,WeatherCatV1.15B25,2013-04-04 16:41:00,
2013-04-04 12:46:00,47.3,18.2,30.20,NW,311,0.0,2.0,31,0.00,,,0.00,WeatherCatV1.15B25,2013-04-04 16:46:00,
2013-04-04 12:51:00,48.8,20.3,30.20,SSW,207,5.0,12.0,32,0.00,,,0.00,WeatherCatV1.15B25,2013-04-04 16:51:00,
2013-04-04 12:56:00,50.5,21.0,30.20,SSW,201,3.0,10.0,31,0.00,,,0.00,WeatherCatV1.15B25,2013-04-04 16:56:00,
2013-04-04 13:02:00,51.5,19.5,30.21,South,189,7.0,8.0,28,0.00,,,0.00,WeatherCatV1.15B25,2013-04-04 17:02:00,
2013-04-04 13:04:00,51.4,18.6,30.20,WSW,249,3.0,10.0,27,0.00,,,0.00,WeatherCatV1.15B25,2013-04-04 17:04:00,
2013-04-04 13:07:00,50.5,16.9,30.20,WNW,288,2.0,8.0,26,0.00,,,0.00,WeatherCatV1.15B25,2013-04-04 17:07:00,
2013-04-04 13:09:00,50.2,18.4,30.20,SSW,213,8.0,8.0,28,0.00,,,0.00,WeatherCatV1.15B25,2013-04-04 17:09:00,
2013-04-04 13:11:00,50.5,17.8,30.19,SSW,196,7.0,14.0,27,0.00,,,0.00,WeatherCatV1.15B25,2013-04-04 17:11:00,
2013-04-04 13:12:00,50.7,19.6,30.19,SW,222,8.0,14.0,29,0.00,,,0.00,WeatherCatV1.15B25,2013-04-04 17:12:00,
2013-04-04 13:13:00,50.8,18.9,30.23,SSW,198,4.0,14.0,28,0.00,,,0.00,WeatherCatV1.15B25,2013-04-04 17:13:00,
2013-04-04 13:14:00,50.9,18.1,30.21,SW,214,6.0,9.0,27,0.00,,,0.00,WeatherCatV1.15B25,2013-04-04 17:14:00,
2013-04-04 13:18:00,51.4,19.4,30.19,West,267,4.0,7.0,28,0.00,,,0.00,WeatherCatV1.15B25,2013-04-04 17:18:00,
2013-04-04 13:19:00,51.2,20.0,30.19,WNW,285,5.0,10.0,29,0.00,,,0.00,WeatherCatV1.15B25,2013-04-04 17:19:00,
2013-04-04 13:21:00,50.5,17.8,30.20,WNW,291,7.0,8.0,27,0.00,,,0.00,WeatherCatV1.15B25,2013-04-04 17:21:00,
2013-04-04 13:23:00,50.2,18.4,30.19,NW,311,5.0,8.0,28,0.00,,,0.00,WeatherCatV1.15B25,2013-04-04 17:23:00,
2013-04-04 13:24:00,50.2,18.4,30.19,NW,318,8.0,9.0,28,0.00,,,0.00,WeatherCatV1.15B25,2013-04-04 17:24:00,
2013-04-04 13:27:00,49.6,17.0,30.18,West,267,5.0,6.0,27,0.00,,,0.00,WeatherCatV1.15B25,2013-04-04 17:27:00,
2013-04-04 13:32:00,49.8,18.0,30.18,West,260,11.0,12.0,28,0.00,,,0.00,WeatherCatV1.15B25,2013-04-04 17:32:00,
2013-04-04 13:34:00,49.9,17.3,30.18,West,276,5.0,11.0,27,0.00,,,0.00,WeatherCatV1.15B25,2013-04-04 17:34:00,
2013-04-04 13:37:00,49.5,16.9,30.18,WSW,242,3.0,11.0,27,0.00,,,0.00,WeatherCatV1.15B25,2013-04-04 17:37:00,
2013-04-04 13:41:00,49.6,17.0,30.17,NW,322,5.0,9.0,27,0.00,,,0.00,WeatherCatV1.15B25,2013-04-04 17:41:00,
2013-04-04 13:46:00,50.2,17.5,30.17,SW,216,7.0,11.0,27,0.00,,,0.00,WeatherCatV1.15B25,2013-04-04 17:46:00,
2013-04-04 13:49:00,50.8,18.0,30.18,WSW,244,5.0,5.0,27,0.00,,,0.00,WeatherCatV1.15B25,2013-04-04 17:49:00,
2013-04-04 13:54:00,51.6,18.7,30.17,SW,220,5.0,5.0,27,0.00,,,0.00,WeatherCatV1.15B25,2013-04-04 17:54:00,
2013-04-04 13:56:00,51.5,18.6,30.17,WNW,292,1.0,6.0,27,0.00,,,0.00,WeatherCatV1.15B25,2013-04-04 17:56:00,
2013-04-04 14:01:00,52.4,19.4,30.17,South,190,6.0,9.0,27,0.00,,,0.00,WeatherCatV1.15B25,2013-04-04 18:01:00,
2013-04-04 14:02:00,52.6,19.6,30.17,SSE,163,6.0,9.0,27,0.00,,,0.00,WeatherCatV1.15B25,2013-04-04 18:02:00,
2013-04-04 14:04:00,52.7,19.7,30.16,South,189,4.0,6.0,27,0.00,,,0.00,WeatherCatV1.15B25,2013-04-04 18:04:00,
2013-04-04 14:07:00,52.9,19.8,30.16,SSW,198,5.0,8.0,27,0.00,,,0.00,WeatherCatV1.15B25,2013-04-04 18:07:00,
2013-04-04 14:12:00,52.9,18.1,30.15,WNW,294,3.0,9.0,25,0.00,,,0.00,WeatherCatV1.15B25,2013-04-04 18:12:00,
2013-04-04 14:14:00,52.1,19.2,30.15,WSW,240,1.0,10.0,27,0.00,,,0.00,WeatherCatV1.15B25,2013-04-04 18:14:00,
2013-04-04 14:19:00,52.9,19.8,30.15,SSW,206,4.0,5.0,27,0.00,,,0.00,WeatherCatV1.15B25,2013-04-04 18:19:00,
2013-04-04 14:21:00,52.6,17.8,30.15,WNW,290,6.0,12.0,25,0.00,,,0.00,WeatherCatV1.15B25,2013-04-04 18:21:00,
2013-04-04 14:22:00,52.4,19.4,30.15,WNW,296,7.0,12.0,27,0.00,,,0.00,WeatherCatV1.15B25,2013-04-04 18:22:00,
2013-04-04 14:26:00,52.4,19.4,30.15,SSW,203,4.0,10.0,27,0.00,,,0.00,WeatherCatV1.15B25,2013-04-04 18:26:00,
2013-04-04 14:27:00,52.6,19.6,30.14,WSW,243,2.0,10.0,27,0.00,,,0.00,WeatherCatV1.15B25,2013-04-04 18:27:00,
2013-04-04 14:29:00,52.7,19.7,30.15,WNW,289,5.0,7.0,27,0.00,,,0.00,WeatherCatV1.15B25,2013-04-04 18:29:00,
2013-04-04 14:31:00,52.5,18.6,30.15,West,267,10.0,14.0,26,0.00,,,0.00,WeatherCatV1.15B25,2013-04-04 18:31:00,
2013-04-04 14:34:00,52.7,19.7,30.15,West,264,5.0,8.0,27,0.00,,,0.00,WeatherCatV1.15B25,2013-04-04 18:34:00,
2013-04-04 14:37:00,53.3,20.2,30.15,SSW,204,3.0,8.0,27,0.00,,,0.00,WeatherCatV1.15B25,2013-04-04 18:37:00,
2013-04-04 14:42:00,53.0,18.1,30.14,North,0,1.0,9.0,25,0.00,,,0.00,WeatherCatV1.15B25,2013-04-04 18:42:00,
2013-04-04 14:47:00,52.4,17.6,30.15,WNW,298,3.0,8.0,25,0.00,,,0.00,WeatherCatV1.15B25,2013-04-04 18:47:00,
2013-04-04 14:49:00,52.4,19.4,30.14,WNW,299,2.0,3.0,27,0.00,,,0.00,WeatherCatV1.15B25,2013-04-04 18:49:00,
2013-04-04 14:51:00,52.7,19.7,30.15,North,350,7.0,8.0,27,0.00,,,0.00,WeatherCatV1.15B25,2013-04-04 18:51:00,
2013-04-04 14:54:00,52.9,19.0,30.15,NNW,344,2.0,6.0,26,0.00,,,0.00,WeatherCatV1.15B25,2013-04-04 18:54:00,
2013-04-04 14:59:00,53.6,20.4,30.13,West,267,3.0,5.0,27,0.00,,,0.00,WeatherCatV1.15B25,2013-04-04 18:59:00,
2013-04-04 15:04:00,54.6,19.5,30.13,SSW,193,7.0,11.0,25,0.00,,,0.00,WeatherCatV1.15B25,2013-04-04 19:04:00,
2013-04-04 15:09:00,54.3,20.2,30.13,SW,224,7.0,7.0,26,0.00,,,0.00,WeatherCatV1.15B25,2013-04-04 19:09:00,
2013-04-04 15:11:00,54.5,20.3,30.15,SSW,193,5.0,8.0,26,0.00,,,0.00,WeatherCatV1.15B25,2013-04-04 19:11:00,
2013-04-04 15:12:00,54.4,20.2,30.13,NE,55,0.0,8.0,26,0.00,,,0.00,WeatherCatV1.15B25,2013-04-04 19:12:00,
2013-04-04 15:14:00,54.5,20.3,30.13,SSW,207,6.0,12.0,26,0.00,,,0.00,WeatherCatV1.15B25,2013-04-04 19:14:00,
2013-04-04 15:16:00,54.8,21.5,30.13,SSW,200,6.0,13.0,27,0.00,,,0.00,WeatherCatV1.15B25,2013-04-04 19:16:00,
2013-04-04 15:19:00,55.0,20.8,30.13,SW,235,5.0,19.0,26,0.00,,,0.00,WeatherCatV1.15B25,2013-04-04 19:19:00,
2013-04-04 15:21:00,55.2,20.9,30.12,WSW,251,1.0,5.0,26,0.00,,,0.00,WeatherCatV1.15B25,2013-04-04 19:21:00,
2013-04-04 15:24:00,55.5,21.2,30.12,SSW,204,5.0,7.0,26,0.00,,,0.00,WeatherCatV1.15B25,2013-04-04 19:24:00,
2013-04-04 15:26:00,55.8,22.3,30.12,SSW,211,6.0,12.0,27,0.00,,,0.00,WeatherCatV1.15B25,2013-04-04 19:26:00,
2013-04-04 15:31:00,55.6,20.3,30.11,SSW,199,1.0,5.0,25,0.00,,,0.00,WeatherCatV1.15B25,2013-04-04 19:31:00,
2013-04-04 15:36:00,55.2,21.8,30.12,SSW,196,7.0,8.0,27,0.00,,,0.00,WeatherCatV1.15B25,2013-04-04 19:36:00,
2013-04-04 15:41:00,55.2,21.8,30.11,WSW,242,3.0,9.0,27,0.00,,,0.00,WeatherCatV1.15B25,2013-04-04 19:41:00,
2013-04-04 15:46:00,55.3,21.0,30.11,WSW,238,6.0,13.0,26,0.00,,,0.00,WeatherCatV1.15B25,2013-04-04 19:46:00,
2013-04-04 15:51:00,55.5,22.1,30.10,SW,231,3.0,11.0,27,0.00,,,0.00,WeatherCatV1.15B25,2013-04-04 19:51:00,
2013-04-04 15:56:00,55.9,20.6,30.10,WSW,249,3.0,11.0,25,0.00,,,0.00,WeatherCatV1.15B25,2013-04-04 19:56:00,
2013-04-04 15:59:00,55.9,22.4,30.09,WSW,240,8.0,10.0,27,0.00,,,0.00,WeatherCatV1.15B25,2013-04-04 19:59:00,
2013-04-04 16:02:00,55.8,21.4,30.10,WSW,244,6.0,12.0,26,0.00,,,0.00,WeatherCatV1.15B25,2013-04-04 20:02:00,
2013-04-04 16:04:00,55.7,21.4,30.10,WSW,249,6.0,7.0,26,0.00,,,0.00,WeatherCatV1.15B25,2013-04-04 20:04:00,
2013-04-04 16:06:00,55.8,22.3,30.09,WSW,239,0.0,8.0,27,0.00,,,0.00,WeatherCatV1.15B25,2013-04-04 20:06:00,
2013-04-04 16:09:00,55.9,22.4,30.09,SW,231,2.0,12.0,27,0.00,,,0.00,WeatherCatV1.15B25,2013-04-04 20:09:00,
2013-04-04 16:11:00,55.9,22.4,30.09,SW,225,3.0,11.0,27,0.00,,,0.00,WeatherCatV1.15B25,2013-04-04 20:11:00,
2013-04-04 16:16:00,55.6,22.2,30.08,SW,235,9.0,9.0,27,0.00,,,0.00,WeatherCatV1.15B25,2013-04-04 20:16:00,
2013-04-04 16:21:00,55.2,20.9,30.08,WNW,291,4.0,5.0,26,0.00,,,0.00,WeatherCatV1.15B25,2013-04-04 20:21:00,
2013-04-04 16:26:00,54.4,21.1,30.08,NW,304,2.0,7.0,27,0.00,,,0.00,WeatherCatV1.15B25,2013-04-04 20:26:00,
2013-04-04 16:29:00,54.5,21.2,30.07,WSW,249,8.0,13.0,27,0.00,,,0.00,WeatherCatV1.15B25,2013-04-04 20:29:00,
2013-04-04 16:31:00,54.5,21.2,30.09,NW,307,3.0,9.0,27,0.00,,,0.00,WeatherCatV1.15B25,2013-04-04 20:31:00,
2013-04-04 16:36:00,54.6,21.3,30.08,SW,228,3.0,8.0,27,0.00,,,0.00,WeatherCatV1.15B25,2013-04-04 20:36:00,
2013-04-04 16:39:00,54.6,21.3,30.08,SW,230,3.0,17.0,27,0.00,,,0.00,WeatherCatV1.15B25,2013-04-04 20:39:00,
2013-04-04 16:44:00,54.8,21.5,30.07,SSW,199,4.0,12.0,27,0.00,,,0.00,WeatherCatV1.15B25,2013-04-04 20:44:00,
2013-04-04 16:46:00,54.8,21.5,30.07,WSW,247,4.0,8.0,27,0.00,,,0.00,WeatherCatV1.15B25,2013-04-04 20:46:00,
2013-04-04 16:49:00,54.7,21.4,30.08,West,261,6.0,9.0,27,0.00,,,0.00,WeatherCatV1.15B25,2013-04-04 20:49:00,
2013-04-04 16:51:00,54.7,20.5,30.07,WNW,297,2.0,8.0,26,0.00,,,0.00,WeatherCatV1.15B25,2013-04-04 20:51:00,
2013-04-04 16:52:00,54.6,21.3,30.07,NW,309,4.0,6.0,27,0.00,,,0.00,WeatherCatV1.15B25,2013-04-04 20:52:00,
2013-04-04 16:57:00,54.3,21.0,30.07,NW,316,5.0,8.0,27,0.00,,,0.00,WeatherCatV1.15B25,2013-04-04 20:57:00,
2013-04-04 17:01:00,54.3,21.0,30.06,WSW,238,4.0,11.0,27,0.00,,,0.00,WeatherCatV1.15B25,2013-04-04 21:01:00,
2013-04-04 17:02:00,54.3,21.0,30.07,WSW,241,2.0,11.0,27,0.00,,,0.00,WeatherCatV1.15B25,2013-04-04 21:02:00,
2013-04-04 17:04:00,54.4,21.1,30.07,West,259,3.0,5.0,27,0.00,,,0.00,WeatherCatV1.15B25,2013-04-04 21:04:00,
2013-04-04 17:07:00,54.4,21.1,30.07,WNW,292,6.0,7.0,27,0.00,,,0.00,WeatherCatV1.15B25,2013-04-04 21:07:00,
2013-04-04 17:12:00,54.5,21.2,30.07,SW,230,9.0,11.0,27,0.00,,,0.00,WeatherCatV1.15B25,2013-04-04 21:12:00,
2013-04-04 17:14:00,54.4,21.1,30.06,SW,234,7.0,14.0,27,0.00,,,0.00,WeatherCatV1.15B25,2013-04-04 21:14:00,
2013-04-04 17:16:00,54.6,21.3,30.07,SW,224,4.0,13.0,27,0.00,,,0.00,WeatherCatV1.15B25,2013-04-04 21:16:00,
2013-04-04 17:21:00,54.6,21.3,30.06,SW,236,6.0,10.0,27,0.00,,,0.00,WeatherCatV1.15B25,2013-04-04 21:21:00,
2013-04-04 17:22:00,54.6,21.3,30.07,SW,236,6.0,10.0,27,0.00,,,0.00,WeatherCatV1.15B25,2013-04-04 21:22:00,
2013-04-04 17:26:00,54.6,21.3,30.05,SW,228,7.0,8.0,27,0.00,,,0.00,WeatherCatV1.15B25,2013-04-04 21:26:00,
2013-04-04 17:27:00,54.6,21.3,30.06,SSW,207,3.0,8.0,27,0.00,,,0.00,WeatherCatV1.15B25,2013-04-04 21:27:00,
2013-04-04 17:31:00,54.4,21.1,30.06,WSW,243,3.0,9.0,27,0.00,,,0.00,WeatherCatV1.15B25,2013-04-04 21:31:00,
2013-04-04 17:36:00,54.4,21.1,30.06,WSW,251,5.0,6.0,27,0.00,,,0.00,WeatherCatV1.15B25,2013-04-04 21:36:00,
2013-04-04 17:39:00,54.6,21.3,30.06,WSW,245,5.0,12.0,27,0.00,,,0.00,WeatherCatV1.15B25,2013-04-04 21:39:00,
2013-04-04 17:41:00,54.4,21.1,30.06,SW,218,4.0,12.0,27,0.00,,,0.00,WeatherCatV1.15B25,2013-04-04 21:41:00,
2013-04-04 17:44:00,54.3,21.0,30.06,SW,214,3.0,9.0,27,0.00,,,0.00,WeatherCatV1.15B25,2013-04-04 21:44:00,
2013-04-04 17:49:00,54.2,21.0,30.06,SSW,200,4.0,7.0,27,0.00,,,0.00,WeatherCatV1.15B25,2013-04-04 21:49:00,
2013-04-04 17:54:00,54.2,21.0,30.06,South,177,3.0,6.0,27,0.00,,,0.00,WeatherCatV1.15B25,2013-04-04 21:54:00,
2013-04-04 17:56:00,54.2,21.0,30.05,SW,221,3.0,9.0,27,0.00,,,0.00,WeatherCatV1.15B25,2013-04-04 21:56:00,
2013-04-04 17:59:00,54.2,21.0,30.06,SW,216,8.0,8.0,27,0.00,,,0.00,WeatherCatV1.15B25,2013-04-04 21:59:00,
2013-04-04 18:04:00,54.2,21.8,30.06,SSW,206,3.0,5.0,28,0.00,,,0.00,WeatherCatV1.15B25,2013-04-04 22:04:00,
2013-04-04 18:06:00,54.0,20.8,30.05,SSW,206,6.0,7.0,27,0.00,,,0.00,WeatherCatV1.15B25,2013-04-04 22:06:00,
2013-04-04 18:09:00,54.2,21.8,30.05,SW,219,6.0,9.0,28,0.00,,,0.00,WeatherCatV1.15B25,2013-04-04 22:09:00,
2013-04-04 18:14:00,54.2,21.8,30.06,South,189,5.0,11.0,28,0.00,,,0.00,WeatherCatV1.15B25,2013-04-04 22:14:00,
2013-04-04 18:19:00,54.0,20.8,30.04,SW,236,8.0,8.0,27,0.00,,,0.00,WeatherCatV1.15B25,2013-04-04 22:19:00,
2013-04-04 18:21:00,53.9,20.7,30.06,SSW,201,8.0,13.0,27,0.00,,,0.00,WeatherCatV1.15B25,2013-04-04 22:21:00,
2013-04-04 18:24:00,53.7,20.5,30.05,SW,214,3.0,9.0,27,0.00,,,0.00,WeatherCatV1.15B25,2013-04-04 22:24:00,
2013-04-04 18:26:00,53.6,20.4,30.05,SW,217,7.0,7.0,27,0.00,,,0.00,WeatherCatV1.15B25,2013-04-04 22:26:00,
2013-04-04 18:29:00,53.4,20.3,30.05,SW,224,4.0,4.0,27,0.00,,,0.00,WeatherCatV1.15B25,2013-04-04 22:29:00,
2013-04-04 18:31:00,53.2,21.0,30.06,SSW,203,6.0,9.0,28,0.00,,,0.00,WeatherCatV1.15B25,2013-04-04 22:31:00,
2013-04-04 18:34:00,53.0,19.9,30.05,SSW,202,6.0,9.0,27,0.00,,,0.00,WeatherCatV1.15B25,2013-04-04 22:34:00,
2013-04-04 18:36:00,52.9,19.8,30.05,SSW,203,2.0,5.0,27,0.00,,,0.00,WeatherCatV1.15B25,2013-04-04 22:36:00,
2013-04-04 18:39:00,52.7,20.5,30.06,SSW,195,2.0,4.0,28,0.00,,,0.00,WeatherCatV1.15B25,2013-04-04 22:39:00,
2013-04-04 18:41:00,52.6,20.4,30.06,SSW,195,2.0,4.0,28,0.00,,,0.00,WeatherCatV1.15B25,2013-04-04 22:41:00,
2013-04-04 18:44:00,52.4,20.3,30.05,SSW,195,1.0,4.0,28,0.00,,,0.00,WeatherCatV1.15B25,2013-04-04 22:44:00,
2013-04-04 18:49:00,52.3,21.0,30.05,SSW,195,1.0,2.0,29,0.00,,,0.00,WeatherCatV1.15B25,2013-04-04 22:49:00,
2013-04-04 18:54:00,52.0,20.7,30.05,SSW,195,1.0,4.0,29,0.00,,,0.00,WeatherCatV1.15B25,2013-04-04 22:54:00,
2013-04-04 18:59:00,51.7,20.5,30.05,SSW,195,1.0,3.0,29,0.00,,,0.00,WeatherCatV1.15B25,2013-04-04 22:59:00,
2013-04-04 19:01:00,51.5,20.3,30.03,SSW,195,1.0,6.0,29,0.00,,,0.00,WeatherCatV1.15B25,2013-04-04 23:01:00,
2013-04-04 19:06:00,50.9,21.4,30.04,SSW,195,2.0,4.0,31,0.00,,,0.00,WeatherCatV1.15B25,2013-04-04 23:06:00,
2013-04-04 19:11:00,50.5,21.8,30.04,SSW,195,5.0,5.0,32,0.00,,,0.00,WeatherCatV1.15B25,2013-04-04 23:11:00,
2013-04-04 19:16:00,49.9,20.5,30.04,SSW,199,7.0,7.0,31,0.00,,,0.00,WeatherCatV1.15B25,2013-04-04 23:16:00,
2013-04-04 19:19:00,49.8,20.4,30.05,SSW,199,2.0,6.0,31,0.00,,,0.00,WeatherCatV1.15B25,2013-04-04 23:19:00,
2013-04-04 19:21:00,49.8,21.1,30.05,SSW,199,3.0,4.0,32,0.00,,,0.00,WeatherCatV1.15B25,2013-04-04 23:21:00,
2013-04-04 19:26:00,49.6,21.0,30.04,SSW,199,4.0,4.0,32,0.00,,,0.00,WeatherCatV1.15B25,2013-04-04 23:26:00,
2013-04-04 19:29:00,49.5,20.9,30.05,SSW,199,3.0,3.0,32,0.00,,,0.00,WeatherCatV1.15B25,2013-04-04 23:29:00,
2013-04-04 19:31:00,49.3,20.7,30.04,SSW,199,3.0,4.0,32,0.00,,,0.00,WeatherCatV1.15B25,2013-04-04 23:31:00,
2013-04-04 19:34:00,49.2,20.6,30.05,SSW,199,3.0,4.0,32,0.00,,,0.00,WeatherCatV1.15B25,2013-04-04 23:34:00,
2013-04-04 19:36:00,49.0,21.2,30.05,SSW,199,3.0,5.0,33,0.00,,,0.00,WeatherCatV1.15B25,2013-04-04 23:36:00,
2013-04-04 19:39:00,48.9,21.1,30.05,SSW,199,2.0,3.0,33,0.00,,,0.00,WeatherCatV1.15B25,2013-04-04 23:39:00,
2013-04-04 19:41:00,48.8,21.0,30.04,SSW,199,1.0,2.0,33,0.00,,,0.00,WeatherCatV1.15B25,2013-04-04 23:41:00,
2013-04-04 19:44:00,48.7,20.9,30.05,SSW,199,3.0,3.0,33,0.00,,,0.00,WeatherCatV1.15B25,2013-04-04 23:44:00,
2013-04-04 19:49:00,48.5,20.7,30.05,SSW,199,1.0,3.0,33,0.00,,,0.00,WeatherCatV1.15B25,2013-04-04 23:49:00,
2013-04-04 19:51:00,48.5,20.7,30.05,SSW,199,0.0,3.0,33,0.00,,,0.00,WeatherCatV1.15B25,2013-04-04 23:51:00,
2013-04-04 19:54:00,48.3,21.3,30.05,SSW,199,2.0,3.0,34,0.00,,,0.00,WeatherCatV1.15B25,2013-04-04 23:54:00,
2013-04-04 19:56:00,48.2,21.2,30.04,SSW,199,0.0,2.0,34,0.00,,,0.00,WeatherCatV1.15B25,2013-04-04 23:56:00,
2013-04-04 19:59:00,48.0,21.7,30.05,SSW,199,3.0,4.0,35,0.00,,,0.00,WeatherCatV1.15B25,2013-04-04 23:59:00,
2013-04-04 20:04:00,47.6,21.3,30.06,SSW,199,2.0,4.0,35,0.00,,,0.00,WeatherCatV1.15B25,2013-04-05 00:04:00,
2013-04-04 20:06:00,47.6,21.3,30.05,SSW,199,5.0,8.0,35,0.00,,,0.00,WeatherCatV1.15B25,2013-04-05 00:06:00,
2013-04-04 20:11:00,47.4,21.1,30.05,SSW,200,4.0,6.0,35,0.00,,,0.00,WeatherCatV1.15B25,2013-04-05 00:11:00,
2013-04-04 20:14:00,47.6,22.0,30.05,SSW,202,3.0,7.0,36,0.00,,,0.00,WeatherCatV1.15B25,2013-04-05 00:14:00,
2013-04-04 20:16:00,47.6,22.0,30.06,SSW,202,5.0,5.0,36,0.00,,,0.00,WeatherCatV1.15B25,2013-04-05 00:16:00,
2013-04-04 20:19:00,47.6,21.3,30.06,SSW,209,3.0,6.0,35,0.00,,,0.00,WeatherCatV1.15B25,2013-04-05 00:19:00,
2013-04-04 20:21:00,47.6,22.0,30.05,SSW,209,3.0,6.0,36,0.00,,,0.00,WeatherCatV1.15B25,2013-04-05 00:21:00,
2013-04-04 20:26:00,47.6,22.0,30.06,SSW,209,5.0,6.0,36,0.00,,,0.00,WeatherCatV1.15B25,2013-04-05 00:26:00,
2013-04-04 20:29:00,47.6,22.0,30.06,SSW,207,2.0,7.0,36,0.00,,,0.00,WeatherCatV1.15B25,2013-04-05 00:29:00,
2013-04-04 20:34:00,47.4,22.5,30.07,SSW,207,1.0,5.0,37,0.00,,,0.00,WeatherCatV1.15B25,2013-04-05 00:34:00,
2013-04-04 20:36:00,47.4,21.8,30.05,SSW,207,3.0,6.0,36,0.00,,,0.00,WeatherCatV1.15B25,2013-04-05 00:36:00,
2013-04-04 20:39:00,47.4,21.8,30.06,SSW,206,4.0,7.0,36,0.00,,,0.00,WeatherCatV1.15B25,2013-04-05 00:39:00,
2013-04-04 20:44:00,47.6,22.0,30.07,SSW,205,4.0,8.0,36,0.00,,,0.00,WeatherCatV1.15B25,2013-04-05 00:44:00,
2013-04-04 20:46:00,47.6,22.0,30.07,SSW,205,5.0,5.0,36,0.00,,,0.00,WeatherCatV1.15B25,2013-04-05 00:46:00,
2013-04-04 20:49:00,47.6,22.0,30.06,SSW,209,2.0,7.0,36,0.00,,,0.00,WeatherCatV1.15B25,2013-04-05 00:49:00,
2013-04-04 20:51:00,47.6,22.0,30.06,SSW,210,4.0,5.0,36,0.00,,,0.00,WeatherCatV1.15B25,2013-04-05 00:51:00,
2013-04-04 20:54:00,47.6,22.0,30.07,SSW,209,5.0,6.0,36,0.00,,,0.00,WeatherCatV1.15B25,2013-04-05 00:54:00,
2013-04-04 20:59:00,47.6,22.0,30.07,SSW,209,5.0,5.0,36,0.00,,,0.00,WeatherCatV1.15B25,2013-04-05 00:59:00,
2013-04-04 21:04:00,47.4,22.5,30.06,SSW,201,6.0,9.0,37,0.00,,,0.00,WeatherCatV1.15B25,2013-04-05 01:04:00,
2013-04-04 21:09:00,47.3,23.0,30.07,SSW,209,6.0,8.0,38,0.00,,,0.00,WeatherCatV1.15B25,2013-04-05 01:09:00,
2013-04-04 21:11:00,47.1,22.8,30.06,SSW,209,3.0,6.0,38,0.00,,,0.00,WeatherCatV1.15B25,2013-04-05 01:11:00,
2013-04-04 21:16:00,46.8,22.5,30.07,South,184,5.0,7.0,38,0.00,,,0.00,WeatherCatV1.15B25,2013-04-05 01:16:00,
2013-04-04 21:17:00,46.9,23.3,30.08,South,184,2.0,7.0,39,0.00,,,0.00,WeatherCatV1.15B25,2013-04-05 01:17:00,
2013-04-04 21:21:00,46.7,23.1,30.07,South,186,1.0,6.0,39,0.00,,,0.00,WeatherCatV1.15B25,2013-04-05 01:21:00,
2013-04-04 21:26:00,46.4,23.4,30.06,SSW,194,3.0,6.0,40,0.00,,,0.00,WeatherCatV1.15B25,2013-04-05 01:26:00,
2013-04-04 21:31:00,46.1,23.1,30.07,SSW,198,4.0,8.0,40,0.00,,,0.00,WeatherCatV1.15B25,2013-04-05 01:31:00,
2013-04-04 21:36:00,46.0,23.6,30.06,South,184,10.0,11.0,41,0.00,,,0.00,WeatherCatV1.15B25,2013-04-05 01:36:00,
2013-04-04 21:39:00,45.8,23.5,30.07,SSW,200,5.0,7.0,41,0.00,,,0.00,WeatherCatV1.15B25,2013-04-05 01:39:00,
2013-04-04 21:41:00,45.8,24.0,30.07,SSW,203,3.0,13.0,42,0.00,,,0.00,WeatherCatV1.15B25,2013-04-05 01:41:00,
2013-04-04 21:46:00,45.7,23.4,30.06,SSW,199,9.0,13.0,41,0.00,,,0.00,WeatherCatV1.15B25,2013-04-05 01:46:00,
2013-04-04 21:51:00,45.4,23.7,30.06,SSW,210,3.0,9.0,42,0.00,,,0.00,WeatherCatV1.15B25,2013-04-05 01:51:00,
2013-04-04 21:56:00,45.1,24.0,30.07,SSW,209,8.0,12.0,43,0.00,,,0.00,WeatherCatV1.15B25,2013-04-05 01:56:00,
2013-04-04 21:59:00,45.0,23.9,30.05,SSW,211,9.0,9.0,43,0.00,,,0.00,WeatherCatV1.15B25,2013-04-05 01:59:00,
2013-04-04 22:01:00,44.7,23.6,30.05,SSW,202,2.0,11.0,43,0.00,,,0.00,WeatherCatV1.15B25,2013-04-05 02:01:00,
2013-04-04 22:06:00,44.6,24.0,30.05,South,191,2.0,3.0,44,0.00,,,0.00,WeatherCatV1.15B25,2013-04-05 02:06:00,
2013-04-04 22:09:00,44.5,24.0,30.06,South,191,3.0,6.0,44,0.00,,,0.00,WeatherCatV1.15B25,2013-04-05 02:09:00,
2013-04-04 22:14:00,44.3,23.8,30.05,SSW,206,1.0,4.0,44,0.00,,,0.00,WeatherCatV1.15B25,2013-04-05 02:14:00,
2013-04-04 22:16:00,44.3,24.3,30.05,SSW,206,3.0,4.0,45,0.00,,,0.00,WeatherCatV1.15B25,2013-04-05 02:16:00,
2013-04-04 22:19:00,44.2,24.2,30.05,SSW,206,2.0,6.0,45,0.00,,,0.00,WeatherCatV1.15B25,2013-04-05 02:19:00,
2013-04-04 22:24:00,44.0,24.0,30.05,SSW,195,1.0,3.0,45,0.00,,,0.00,WeatherCatV1.15B25,2013-04-05 02:24:00,
2013-04-04 22:26:00,44.1,24.7,30.05,SSW,195,2.0,6.0,46,0.00,,,0.00,WeatherCatV1.15B25,2013-04-05 02:26:00,
2013-04-04 22:29:00,43.9,24.5,30.05,SSW,195,2.0,5.0,46,0.00,,,0.00,WeatherCatV1.15B25,2013-04-05 02:29:00,
2013-04-04 22:34:00,43.6,24.2,30.05,SSW,196,5.0,5.0,46,0.00,,,0.00,WeatherCatV1.15B25,2013-04-05 02:34:00,
2013-04-04 22:36:00,43.5,24.6,30.05,SSW,196,3.0,7.0,47,0.00,,,0.00,WeatherCatV1.15B25,2013-04-05 02:36:00,
2013-04-04 22:39:00,43.5,24.6,30.06,SSW,196,5.0,7.0,47,0.00,,,0.00,WeatherCatV1.15B25,2013-04-05 02:39:00,
2013-04-04 22:44:00,43.2,24.3,30.04,SSW,196,3.0,5.0,47,0.00,,,0.00,WeatherCatV1.15B25,2013-04-05 02:44:00,
2013-04-04 22:49:00,43.0,24.7,30.04,SSW,196,3.0,4.0,48,0.00,,,0.00,WeatherCatV1.15B25,2013-04-05 02:49:00,
2013-04-04 22:51:00,42.9,24.1,30.04,SSW,196,4.0,5.0,47,0.00,,,0.00,WeatherCatV1.15B25,2013-04-05 02:51:00,
2013-04-04 22:54:00,42.9,24.1,30.03,SSW,196,2.0,4.0,47,0.00,,,0.00,WeatherCatV1.15B25,2013-04-05 02:54:00,
2013-04-04 22:56:00,42.7,24.4,30.03,SSW,196,0.0,2.0,48,0.00,,,0.00,WeatherCatV1.15B25,2013-04-05 02:56:00,
2013-04-04 23:01:00,42.6,24.3,30.03,SSW,196,4.0,4.0,48,0.00,,,0.00,WeatherCatV1.15B25,2013-04-05 03:01:00,
2013-04-04 23:06:00,42.3,24.5,30.03,SSW,196,2.0,6.0,49,0.00,,,0.00,WeatherCatV1.15B25,2013-04-05 03:06:00,
2013-04-04 23:11:00,42.3,25.0,30.02,SSW,196,2.0,6.0,50,0.00,,,0.00,WeatherCatV1.15B25,2013-04-05 03:11:00,
2013-04-04 23:16:00,42.2,24.9,30.03,SSW,196,4.0,7.0,50,0.00,,,0.00,WeatherCatV1.15B25,2013-04-05 03:16:00,
2013-04-04 23:21:00,42.2,24.4,30.02,SSW,196,6.0,6.0,49,0.00,,,0.00,WeatherCatV1.15B25,2013-04-05 03:21:00,
2013-04-04 23:26:00,42.0,24.7,30.03,SSW,196,5.0,7.0,50,0.00,,,0.00,WeatherCatV1.15B25,2013-04-05 03:26:00,
2013-04-04 23:29:00,42.0,24.7,30.02,SSW,200,4.0,8.0,50,0.00,,,0.00,WeatherCatV1.15B25,2013-04-05 03:29:00,
2013-04-04 23:31:00,42.0,24.7,30.02,SSW,203,5.0,7.0,50,0.00,,,0.00,WeatherCatV1.15B25,2013-04-05 03:31:00,
2013-04-04 23:34:00,42.1,25.3,30.02,SSW,206,4.0,12.0,51,0.00,,,0.00,WeatherCatV1.15B25,2013-04-05 03:34:00,
2013-04-04 23:36:00,41.9,24.6,30.03,SSW,202,2.0,6.0,50,0.00,,,0.00,WeatherCatV1.15B25,2013-04-05 03:36:00,
2013-04-04 23:39:00,41.9,24.6,30.03,SSW,201,2.0,7.0,50,0.00,,,0.00,WeatherCatV1.15B25,2013-04-05 03:39:00,
2013-04-04 23:41:00,41.8,25.0,30.03,SSW,201,8.0,9.0,51,0.00,,,0.00,WeatherCatV1.15B25,2013-04-05 03:41:00,
2013-04-04 23:46:00,41.6,24.8,30.01,SSW,205,6.0,7.0,51,0.00,,,0.00,WeatherCatV1.15B25,2013-04-05 03:46:00,
2013-04-04 23:49:00,41.6,24.8,30.02,SSW,204,2.0,7.0,51,0.00,,,0.00,WeatherCatV1.15B25,2013-04-05 03:49:00,
2013-04-04 23:51:00,41.5,25.2,30.03,SSW,199,5.0,6.0,52,0.00,,,0.00,WeatherCatV1.15B25,2013-04-05 03:51:00,
2013-04-04 23:54:00,41.3,25.0,30.02,SSW,204,2.0,4.0,52,0.00,,,0.00,WeatherCatV1.15B25,2013-04-05 03:54:00,
2013-04-04 23:59:00,41.2,24.9,30.03,SSW,209,4.0,10.0,52,0.00,,,0.00,WeatherCatV1.15B25,2013-04-05 03:59:00,